LogoCoinalyze
    Ad-Free Version 主页 市场 资金费率
    期货数据
    • 汇总数据 (币种)
    • 单币图表
    • 全局图表
    提醒
    TA
    Bitcoin Ethereum BNB Ripple Tron ZCash Dogecoin Monero UNUS SED LEO Chainlink Cardano Stellar Lumens Bitcoin Cash Litecoin Hedera Cronos Polkadot Ethereum Classic Algorand Quant Cosmos VeChain Dash Bitcoin SV BitTorrent Terra Decred Tezos Iota The Graph THETA Decentraland NEO Chiliz MultiversX Golem Basic Attention Token Horizen Qtum 0x DigiByte Beam FTX Token RIF Token Holo FUNToken Zilliqa Ontology aelf Nano Enjin Coin Ravencoin Siacoin Mask Network Verge Status WINk Waves IoTeX iExec RLC Power Ledger Steem Kyber Network Crystal Lisk Ark Ardor WOO Network IOST WAX Icon Storj Wanchain Loopring Bitcoin Diamond AdEx Bitcoin Gold Augur OmiseGO NEM MonaCoin BitShares Ren Komodo V Systems Nuls Mithril SOLVE Maker EOS Aion Nebulas HedgeTrade Bread Fetch.ai TomoChain Polygon Fantom Waltonchain GXChain Bytom Metaverse ETP MaidSafeCoin QASH
    排序方式:
    更多
    • API
    • K线形态
    • 捐赠
    • 联系我们
    • 网站地图
    • 隐私政策
    • 免责声明
    • Theme:
    简体中文
    • English
    • Français
    • Русский
    • Deutsch
    • Türkçe
    • Nederlands
    • Português (BR)
    • Español
    • 한국어
    • 日本語
     
    登录 / 注册
    Markets/ Pepe/ PEPE 至 USD/ PEPEUSD Perp dYdX
    交易
    WL
    聊天
    统计
    新闻
    ⦷
    AAA
    0.0000035497 10000000.00000000 14:07:41
    0.0000035497 10000000.00000000 14:00:55
    0.0000036866 10000000.00000000 03:45:27
    0.0000036464 10000000.00000000 21:53:09
    0.0000035833 10000000.00000000 21:39:20
    0.0000036022 30000000.00000000 10:52:08
    0.0000036022 10000000.00000000 10:52:07
    0.0000036022 10000000.00000000 09:42:24
    0.0000036022 20000000.00000000 09:42:24
    0.0000035829 20000000.00000000 09:09:03
    0.0000035829 20000000.00000000 09:09:03
    0.0000035829 30000000.00000000 09:09:03
    0.0000035829 30000000.00000000 09:09:03
    0.0000035829 30000000.00000000 09:09:03
    0.0000035829 20000000.00000000 09:09:03
    0.0000035829 80000000.00000000 09:09:03
    0.0000035829 30000000.00000000 09:09:02
    0.0000035829 20000000.00000000 09:09:02
    0.0000035829 10000000.00000000 09:09:02
    0.0000035829 30000000.00000000 09:09:02
    0.0000035829 30000000.00000000 09:09:02
    0.0000035829 20000000.00000000 09:09:02
    0.0000035797 50000000.00000000 09:09:02
    0.0000035797 10000000.00000000 09:09:02
    0.0000035797 10000000.00000000 09:09:02
    0.0000035797 20000000.00000000 09:09:02
    0.0000035797 30000000.00000000 09:09:02
    0.0000035797 20000000.00000000 09:09:02
    0.0000035797 10000000.00000000 09:09:02
    0.0000035797 40000000.00000000 09:09:02
    0.0000035797 30000000.00000000 09:09:02
    0.0000035797 20000000.00000000 09:09:02
    0.0000035797 20000000.00000000 09:09:02
    0.0000035797 50000000.00000000 09:09:02
    0.0000035797 20000000.00000000 09:09:02
    0.0000035797 20000000.00000000 09:09:02
    0.0000035797 30000000.00000000 09:09:02
    0.0000035797 20000000.00000000 09:09:02
    0.0000035797 20000000.00000000 09:09:02
    0.0000035797 20000000.00000000 09:09:02
    0.0000035797 20000000.00000000 09:09:02
    0.0000035797 20000000.00000000 09:09:02
    0.0000035797 20000000.00000000 09:09:02
    0.0000035797 20000000.00000000 09:09:02
    0.0000035797 20000000.00000000 09:09:02
    0.0000035797 20000000.00000000 09:09:02
    0.0000035797 20000000.00000000 09:09:02
    0.0000035797 10000000.00000000 09:09:00
    0.0000035797 10000000.00000000 09:08:59
    0.0000035797 20000000.00000000 09:08:59
    0.0000035797 30000000.00000000 09:08:59
    0.0000035797 10000000.00000000 09:08:59
    0.0000035797 20000000.00000000 09:08:59
    0.0000035797 30000000.00000000 09:08:59
    0.0000035797 20000000.00000000 09:08:59
    0.0000035797 10000000.00000000 09:08:59
    0.0000035797 10000000.00000000 09:08:59
    0.0000035797 20000000.00000000 09:08:59
    0.0000035797 120000000.00000000 09:08:59
    0.0000035797 20000000.00000000 09:08:59
    0.0000035797 20000000.00000000 09:08:59
    0.0000035797 20000000.00000000 09:08:59
    0.0000035797 20000000.00000000 09:08:58
    0.0000035797 70000000.00000000 09:08:58
    0.0000035797 20000000.00000000 09:08:58
    0.0000035797 80000000.00000000 09:08:58
    0.0000035797 20000000.00000000 09:08:58
    0.0000035797 20000000.00000000 09:08:58
    0.0000035797 20000000.00000000 09:08:58
    0.0000035797 20000000.00000000 09:08:58
    0.0000035797 90000000.00000000 09:08:58
    0.0000035797 80000000.00000000 09:08:58
    0.0000035797 20000000.00000000 09:08:58
    0.0000035797 40000000.00000000 09:08:58
    0.0000035797 20000000.00000000 09:08:58
    0.0000035797 20000000.00000000 09:08:58
    0.0000035797 20000000.00000000 09:08:58
    0.0000035797 40000000.00000000 09:08:58
    0.0000035797 10000000.00000000 09:08:58
    0.0000035797 20000000.00000000 09:08:58
    0.0000035797 80000000.00000000 09:08:58
    0.0000035797 10000000.00000000 09:08:58
    0.0000035159 40000000.00000000 01:18:46
    0.0000035861 40000000.00000000 00:29:40
    0.0000036300 880000000.00000000 23:24:37
    0.0000036300 120000000.00000000 23:08:27
    0.0000036600 1000000000.00000000 22:46:18
    0.0000037446 20000000.00000000 16:55:06
    0.0000036174 10000000.00000000 11:40:18
    0.0000036174 10000000.00000000 11:40:18
    0.0000038559 10000000.00000000 14:38:28
    0.0000038559 10000000.00000000 14:38:28
    0.0000038559 10000000.00000000 14:38:28
    0.0000038559 10000000.00000000 14:38:28
    0.0000038559 20000000.00000000 14:38:28
    0.0000038559 10000000.00000000 14:38:28
    0.0000038559 20000000.00000000 14:38:28
    0.0000038559 10000000.00000000 14:38:28
    0.0000038559 10000000.00000000 14:38:28
    0.0000038559 10000000.00000000 14:38:28
    注销
    AAA
    帮助
    🙂 🤣 😎 🤗 😛 😉 😜 🤑 🤔 😑 😴 😕 🙃 😲 😇 🙁 😢 😬 😟 😠 🕺 🏃 💪 ✌ 👌 👍 👎 👏 👋 🤝 🍺 🍻 🐋 🐟 🦈 🗽 🚄 ✈ 🛑 🚀 🏦 🌚 ⭐ 🌞 ⚡ 🏆 💰 💲 🔨 ❓ ❗ 💯 🔶 🏁
    ☺
    登录 或 注册 并聊天
    24 小时
    变动
    -0.94%
    成交量
    50,000,000
    最高
    0.0000036866
    最低
    0.0000035497
    7 天
    变动
    -18.97%
    成交量
    13,540,000,000
    最高
    0.0000044061
    最低
    0.0000035159
    30 天
    变动
    +28.06%
    成交量
    66,020,000,000
    最高
    0.0000044329
    最低
    0.0000025109
    Pepe price rallies 25% as whale demand and futures interest surge
    Key takeaways Pepe has gained 25% this week, including a combined 22% advance over the previous two days. Seven whale transactions worth more than $1 million each occurred Thursday, the highest...
    coinjournal.net
    Aug 21, 2026 08:41
    PEPE Supply on Exchanges Just Took a Massive Hit – What’s Next?
    A drop in PEPE exchange balances has added to bullish expectations despite muted trader interest.
    cryptopotato.com
    Aug 6, 2026 20:02
    PEPE Exchange Outflows Hit Nearly 2-Year High as Whales Accumulate
    Pepe (PEPE) recorded its largest single-day exchange outflow since November 2024, with 4.54 trillion tokens leaving trading platforms, signaling that holders are moving supply away from immediate...
    beincrypto.com
    Aug 6, 2026 04:57
    Meme Coin Based on White House Shooter Conspiracy Rallies 320%
    $HENRY surged 300% after a 2023 Pepe tweet appeared to name the White House shooter, fueling a viral time-travel meme. The post Meme Coin Based on White House Shooter Conspiracy Rallies 320%...
    beincrypto.com
    Apr 27, 2026 16:11
    PEPE surges 4% as market sentiment improves, eyes Key resistance breakout
    Key takeaways Pepe extends gains on Wednesday, stretching its rally from the 50-day EMA. Derivatives data show heightened retail activity as risk-on sentiment returns to the market. Pepe (PEPE) is...
    coinjournal.net
    Apr 22, 2026 11:44
    Why The PEPE Price Could Stage A 55X Rally To Reach New $0.0001 ATH
    The PEPE price has now started to edge back into bullish conversations after the recent inflows into the crypto market. The last time PEPE’s weekly chart printed the kind of structure now...
    newsbtc.com
    Apr 21, 2026 15:30
    Pepe (PEPE) surges 9%, drawing interest from whales
    Key takeaways PEPE is up 9% in the last 24 hours, making it one of the best performers among the top 50 cryptocurrencies by market cap. The rally comes amid renewed interest from whales and retail...
    coinjournal.net
    Apr 16, 2026 07:40
    Murad Says SPX6900 (SPX) Is Primed for a Rally — Is He Right This Time?
    Crypto influencer Murad Mahmudov claims SPX6900 (SPX) is stabilizing at the same market cap level where Dogecoin (DOGE) and Pepe (PEPE) consolidated before their explosive rallies. The...
    beincrypto.com
    Apr 5, 2026 21:36
    The Shiba Inu Of This Cycle: Analyst Shares Why It Is Better To Buy PEPE Now
    In the bull market cycle of 2021-2022, the Shiba Inu meme coin made waves in a way that changed the face of meme coins forever. This came after Dogecoin’s initial 36,000% rally, and Shiba Inu...
    newsbtc.com
    Apr 4, 2026 07:30
    PEPE Explodes by 18% Amid Altcoin Rally, BTC Tapped $74K: Market Watch
    The frog-themed meme coin is today's biggest gainer, followed by TAO, DOT, and BONK.
    cryptopotato.com
    Mar 16, 2026 10:56
    Should PEPE traders brace for volatility as short squeeze potential builds?
    The memecoin market has seen its collective market capitalization drop by 48% over the past year, and 6.9% over the past month, according to CoinMarketCap. According to Glassnode, the memecoin...
    ambcrypto.com
    Mar 7, 2026 18:00
    只需在聊天中输入命令即可。将 nick1 替换为实际的昵称。
    • /ignore nick1 忽略聊天用户
    • /unignore nick1 取消忽略聊天用户
    • /ignorelist 显示已忽略的聊天用户